contact:dominique.lefevre@mio.osupytheas.fr, maurice.libes@osupytheas.fr, didier.mallarino@osupytheas.fr
Project:EMSO http://www.emso-fr.org/EMSO-France
Depth: 2436.0 m
Title:EMSO Ligure Ouest : Data MII capteur CSTAR
DateTime,Latitude,Longitude,Instrument_Serial,Reference_Counts,Signal_Counts,Corrected_Signal_raw_counts,Calculated_Beam_c_inverse_meters,Internal_thermistor_counts
DateTime,Latitude,Longitude,Instrument_Serial,Reference_Counts,Signal_Counts,Corrected_Signal_raw_counts,Calculated_Beam_c_inverse_meters,Internal_thermistor_counts
2022-07-29T00:00:30,42.805,6.029,CST-1368DR,4638,4991,11461,01.237,551
2022-07-29T00:03:32,42.805,6.029,CST-1368DR,4638,4990,11460,01.238,551
2022-07-29T00:06:33,42.805,6.029,CST-1368DR,4638,4991,11461,01.237,551
2022-07-29T00:09:35,42.805,6.029,CST-1368DR,4638,4989,11457,01.239,551
2022-07-29T00:12:36,42.805,6.029,CST-1368DR,4638,4990,11458,01.238,551
2022-07-29T00:15:38,42.805,6.029,CST-1368DR,4638,4993,11467,01.235,551
2022-07-29T00:18:40,42.805,6.029,CST-1368DR,4638,4993,11466,01.236,551
2022-07-29T00:21:41,42.805,6.029,CST-1368DR,4638,4994,11467,01.235,551
2022-07-29T00:24:43,42.805,6.029,CST-1368DR,4638,4994,11467,01.235,551
2022-07-29T00:27:44,42.805,6.029,CST-1368DR,4638,4995,11471,01.234,551
2022-07-29T00:30:46,42.805,6.029,CST-1368DR,4638,4994,11469,01.235,551
2022-07-29T00:33:47,42.805,6.029,CST-1368DR,4638,4992,11465,01.236,551
2022-07-29T00:36:49,42.805,6.029,CST-1368DR,4638,4994,11467,01.235,551
2022-07-29T00:39:51,42.805,6.029,CST-1368DR,4638,4994,11467,01.235,551
2022-07-29T00:42:52,42.805,6.029,CST-1368DR,4638,4996,11473,01.233,551
2022-07-29T00:45:54,42.805,6.029,CST-1368DR,4638,4994,11467,01.235,551
2022-07-29T00:48:55,42.805,6.029,CST-1368DR,4638,4996,11473,01.233,551
2022-07-29T00:51:57,42.805,6.029,CST-1368DR,4638,5003,11488,01.228,551
2022-07-29T00:54:58,42.805,6.029,CST-1368DR,4638,4991,11461,01.237,551
2022-07-29T00:58:00,42.805,6.029,CST-1368DR,4638,4987,11453,01.240,551
2022-07-29T01:01:02,42.805,6.029,CST-1368DR,4638,4986,11451,01.241,551
2022-07-29T01:04:03,42.805,6.029,CST-1368DR,4638,4990,11459,01.238,551
2022-07-29T01:07:05,42.805,6.029,CST-1368DR,4638,4993,11465,01.236,551
2022-07-29T01:10:06,42.805,6.029,CST-1368DR,4638,4993,11465,01.236,551
2022-07-29T01:13:08,42.805,6.029,CST-1368DR,4638,4997,11476,01.232,551
2022-07-29T01:16:10,42.805,6.029,CST-1368DR,4638,4992,11464,01.236,551
2022-07-29T01:19:11,42.805,6.029,CST-1368DR,4638,4995,11470,01.234,551
2022-07-29T01:22:13,42.805,6.029,CST-1368DR,4638,4991,11462,01.237,551
2022-07-29T01:25:14,42.805,6.029,CST-1368DR,4638,4993,11466,01.236,551
2022-07-29T01:28:16,42.805,6.029,CST-1368DR,4638,4992,11465,01.236,551
2022-07-29T01:31:17,42.805,6.029,CST-1368DR,4638,4992,11465,01.236,551
2022-07-29T01:34:19,42.805,6.029,CST-1368DR,4638,4992,11463,01.237,551
2022-07-29T01:37:21,42.805,6.029,CST-1368DR,4638,4993,11466,01.236,551
2022-07-29T01:40:22,42.805,6.029,CST-1368DR,4638,4994,11469,01.235,551
2022-07-29T01:43:24,42.805,6.029,CST-1368DR,4638,4992,11465,01.236,551
2022-07-29T01:46:25,42.805,6.029,CST-1368DR,4638,4992,11465,01.236,551
2022-07-29T01:49:27,42.805,6.029,CST-1368DR,4638,4997,11475,01.233,551
2022-07-29T01:52:29,42.805,6.029,CST-1368DR,4638,4993,11466,01.236,551
2022-07-29T01:55:30,42.805,6.029,CST-1368DR,4638,4991,11462,01.237,551
2022-07-29T01:58:32,42.805,6.029,CST-1368DR,4638,4993,11467,01.235,551
2022-07-29T02:01:33,42.805,6.029,CST-1368DR,4638,4994,11469,01.235,551
2022-07-29T02:04:35,42.805,6.029,CST-1368DR,4638,4996,11474,01.233,551
2022-07-29T02:07:36,42.805,6.029,CST-1368DR,4638,4993,11466,01.236,551
2022-07-29T02:10:38,42.805,6.029,CST-1368DR,4638,4991,11461,01.237,551
2022-07-29T02:13:40,42.805,6.029,CST-1368DR,4638,4994,11469,01.235,551
2022-07-29T02:16:41,42.805,6.029,CST-1368DR,4638,4997,11474,01.233,551
2022-07-29T02:19:43,42.805,6.029,CST-1368DR,4638,4993,11467,01.235,551
2022-07-29T02:22:44,42.805,6.029,CST-1368DR,4638,4992,11463,01.237,551
2022-07-29T02:25:46,42.805,6.029,CST-1368DR,4638,4991,11462,01.237,551
2022-07-29T02:28:47,42.805,6.029,CST-1368DR,4638,4993,11467,01.235,551
2022-07-29T02:31:49,42.805,6.029,CST-1368DR,4638,4994,11468,01.235,551
2022-07-29T02:34:51,42.805,6.029,CST-1368DR,4638,4993,11465,01.236,551
2022-07-29T02:37:52,42.805,6.029,CST-1368DR,4638,4991,11461,01.237,551
2022-07-29T02:40:54,42.805,6.029,CST-1368DR,4638,4991,11462,01.237,551
2022-07-29T02:43:55,42.805,6.029,CST-1368DR,4638,4991,11461,01.237,551
2022-07-29T02:46:57,42.805,6.029,CST-1368DR,4638,4991,11461,01.237,551
2022-07-29T02:49:58,42.805,6.029,CST-1368DR,4638,4992,11464,01.236,551
2022-07-29T02:53:00,42.805,6.029,CST-1368DR,4638,4992,11464,01.236,551
2022-07-29T02:56:02,42.805,6.029,CST-1368DR,4638,4992,11464,01.236,551
2022-07-29T02:59:03,42.805,6.029,CST-1368DR,4638,4990,11460,01.238,551
2022-07-29T03:02:05,42.805,6.029,CST-1368DR,4638,4990,11459,01.238,551
2022-07-29T03:05:06,42.805,6.029,CST-1368DR,4638,4993,11465,01.236,551
2022-07-29T03:08:08,42.805,6.029,CST-1368DR,4638,4992,11465,01.236,551
2022-07-29T03:11:10,42.805,6.029,CST-1368DR,4638,4989,11456,01.239,551
2022-07-29T03:14:11,42.805,6.029,CST-1368DR,4638,4989,11457,01.239,551
2022-07-29T03:17:13,42.805,6.029,CST-1368DR,4638,4989,11457,01.239,551
2022-07-29T03:20:14,42.805,6.029,CST-1368DR,4638,4987,11453,01.240,551
2022-07-29T03:23:16,42.805,6.029,CST-1368DR,4638,4989,11456,01.239,551
2022-07-29T03:26:17,42.805,6.029,CST-1368DR,4638,4991,11461,01.237,551
2022-07-29T03:29:19,42.805,6.029,CST-1368DR,4638,4989,11457,01.239,551
2022-07-29T03:32:21,42.805,6.029,CST-1368DR,4638,4990,11460,01.238,551
2022-07-29T03:35:22,42.805,6.029,CST-1368DR,4638,4987,11453,01.240,551
2022-07-29T03:38:24,42.805,6.029,CST-1368DR,4638,4986,11450,01.241,551
2022-07-29T03:41:25,42.805,6.029,CST-1368DR,4638,4984,11445,01.243,551
2022-07-29T03:44:27,42.805,6.029,CST-1368DR,4638,4984,11446,01.243,551
2022-07-29T03:47:29,42.805,6.029,CST-1368DR,4638,4988,11454,01.240,551
2022-07-29T03:50:30,42.805,6.029,CST-1368DR,4638,4986,11449,01.242,551
2022-07-29T03:53:32,42.805,6.029,CST-1368DR,4638,4987,11453,01.240,551
2022-07-29T03:56:33,42.805,6.029,CST-1368DR,4638,4987,11453,01.240,551
2022-07-29T03:59:35,42.805,6.029,CST-1368DR,4638,4987,11453,01.240,551
2022-07-29T04:02:36,42.805,6.029,CST-1368DR,4638,4987,11451,01.241,551
2022-07-29T04:05:38,42.805,6.029,CST-1368DR,4638,4987,11453,01.240,551
2022-07-29T04:08:40,42.805,6.029,CST-1368DR,4638,4983,11444,01.243,551
2022-07-29T04:11:41,42.805,6.029,CST-1368DR,4638,4984,11445,01.243,551
2022-07-29T04:14:43,42.805,6.029,CST-1368DR,4638,4982,11441,01.244,551
2022-07-29T04:17:44,42.805,6.029,CST-1368DR,4638,4982,11442,01.244,551
2022-07-29T04:20:46,42.805,6.029,CST-1368DR,4638,4982,11440,01.245,551
2022-07-29T04:23:47,42.805,6.029,CST-1368DR,4638,4982,11441,01.244,551
2022-07-29T04:26:49,42.805,6.029,CST-1368DR,4638,4985,11447,01.242,551
2022-07-29T04:29:51,42.805,6.029,CST-1368DR,4638,4988,11455,01.239,551
2022-07-29T04:32:52,42.805,6.029,CST-1368DR,4638,4988,11454,01.240,551
2022-07-29T04:35:54,42.805,6.029,CST-1368DR,4638,4987,11453,01.240,551
2022-07-29T04:38:55,42.805,6.029,CST-1368DR,4638,4989,11456,01.239,551
2022-07-29T04:41:57,42.805,6.029,CST-1368DR,4638,4987,11453,01.240,551
2022-07-29T04:44:59,42.805,6.029,CST-1368DR,4638,4988,11454,01.240,551
2022-07-29T04:48:00,42.805,6.029,CST-1368DR,4638,4984,11445,01.243,551
2022-07-29T04:51:02,42.805,6.029,CST-1368DR,4638,4985,11449,01.242,551
2022-07-29T04:54:03,42.805,6.029,CST-1368DR,4638,4996,11472,01.234,551
2022-07-29T04:57:05,42.805,6.029,CST-1368DR,4638,4983,11444,01.243,551
2022-07-29T05:00:06,42.805,6.029,CST-1368DR,4638,4984,11446,01.243,551
2022-07-29T05:03:08,42.805,6.029,CST-1368DR,4638,4985,11447,01.242,551
2022-07-29T05:06:10,42.805,6.029,CST-1368DR,4638,4984,11445,01.243,551
2022-07-29T05:09:11,42.805,6.029,CST-1368DR,4638,4985,11447,01.242,551
2022-07-29T05:12:13,42.805,6.029,CST-1368DR,4638,4984,11446,01.243,551
2022-07-29T05:15:14,42.805,6.029,CST-1368DR,4638,4986,11451,01.241,551
2022-07-29T05:18:16,42.805,6.029,CST-1368DR,4638,4983,11444,01.243,551
2022-07-29T05:21:18,42.805,6.029,CST-1368DR,4638,4992,11464,01.236,551
2022-07-29T05:24:19,42.805,6.029,CST-1368DR,4638,4998,11478,01.231,551
2022-07-29T05:27:21,42.805,6.029,CST-1368DR,4638,4991,11462,01.237,551
2022-07-29T05:30:22,42.805,6.029,CST-1368DR,4638,4988,11455,01.239,551
2022-07-29T05:33:24,42.805,6.029,CST-1368DR,4638,4990,11458,01.238,551
2022-07-29T05:36:25,42.805,6.029,CST-1368DR,4638,4990,11459,01.238,551
2022-07-29T05:39:27,42.805,6.029,CST-1368DR,4638,4993,11466,01.236,551
2022-07-29T05:42:29,42.805,6.029,CST-1368DR,4638,4995,11470,01.234,551
2022-07-29T05:45:30,42.805,6.029,CST-1368DR,4638,4993,11465,01.236,551
2022-07-29T05:48:32,42.805,6.029,CST-1368DR,4638,4991,11461,01.237,551
2022-07-29T05:51:33,42.805,6.029,CST-1368DR,4638,4992,11465,01.236,551
2022-07-29T05:54:35,42.805,6.029,CST-1368DR,4638,4991,11461,01.237,551
2022-07-29T05:57:36,42.805,6.029,CST-1368DR,4638,4990,11459,01.238,551
2022-07-29T06:00:38,42.805,6.029,CST-1368DR,4638,4989,11456,01.239,551
2022-07-29T06:03:40,42.805,6.029,CST-1368DR,4638,4990,11460,01.238,551
2022-07-29T06:06:41,42.805,6.029,CST-1368DR,4638,4991,11461,01.237,551
2022-07-29T06:09:43,42.805,6.029,CST-1368DR,4638,4991,11462,01.237,551
2022-07-29T06:12:44,42.805,6.029,CST-1368DR,4638,4992,11463,01.237,551
2022-07-29T06:15:46,42.805,6.029,CST-1368DR,4638,4988,11455,01.239,551
2022-07-29T06:18:47,42.805,6.029,CST-1368DR,4638,4991,11462,01.237,551
2022-07-29T06:21:49,42.805,6.029,CST-1368DR,4638,4990,11459,01.238,551
2022-07-29T06:24:51,42.805,6.029,CST-1368DR,4638,4992,11464,01.236,551
2022-07-29T06:27:52,42.805,6.029,CST-1368DR,4638,4991,11461,01.237,551
2022-07-29T06:30:54,42.805,6.029,CST-1368DR,4638,4992,11463,01.237,551
2022-07-29T06:33:55,42.805,6.029,CST-1368DR,4638,4993,11466,01.236,551
2022-07-29T06:36:57,42.805,6.029,CST-1368DR,4638,4991,11462,01.237,551
2022-07-29T06:39:59,42.805,6.029,CST-1368DR,4638,4990,11459,01.238,551
2022-07-29T06:43:00,42.805,6.029,CST-1368DR,4638,4995,11471,01.234,551
2022-07-29T06:46:02,42.805,6.029,CST-1368DR,4638,4994,11469,01.235,551
2022-07-29T06:49:03,42.805,6.029,CST-1368DR,4638,4996,11472,01.234,551
2022-07-29T06:52:05,42.805,6.029,CST-1368DR,4638,4993,11467,01.235,551
2022-07-29T06:55:06,42.805,6.029,CST-1368DR,4638,4993,11465,01.236,551
2022-07-29T06:58:08,42.805,6.029,CST-1368DR,4638,4999,11480,01.231,551
2022-07-29T07:01:10,42.805,6.029,CST-1368DR,4638,4994,11469,01.235,551
2022-07-29T07:04:11,42.805,6.029,CST-1368DR,4638,4996,11472,01.234,551
2022-07-29T07:07:13,42.805,6.029,CST-1368DR,4638,4995,11471,01.234,551
2022-07-29T07:10:14,42.805,6.029,CST-1368DR,4638,4992,11465,01.236,551
2022-07-29T07:13:16,42.805,6.029,CST-1368DR,4638,4996,11473,01.233,551
2022-07-29T07:16:17,42.805,6.029,CST-1368DR,4638,4992,11464,01.236,551
2022-07-29T07:19:19,42.805,6.029,CST-1368DR,4638,4994,11469,01.235,551
2022-07-29T07:22:21,42.805,6.029,CST-1368DR,4638,4992,11465,01.236,551
2022-07-29T07:25:22,42.805,6.029,CST-1368DR,4638,4994,11468,01.235,551
2022-07-29T07:28:24,42.805,6.029,CST-1368DR,4638,4991,11461,01.237,551
2022-07-29T07:31:25,42.805,6.029,CST-1368DR,4638,4990,11459,01.238,551
2022-07-29T07:34:27,42.805,6.029,CST-1368DR,4638,4992,11465,01.236,551
2022-07-29T07:37:29,42.805,6.029,CST-1368DR,4638,4995,11471,01.234,551
2022-07-29T07:40:30,42.805,6.029,CST-1368DR,4638,4992,11465,01.236,551
2022-07-29T07:43:32,42.805,6.029,CST-1368DR,4638,4993,11465,01.236,551
2022-07-29T07:46:33,42.805,6.029,CST-1368DR,4638,4993,11465,01.236,551
2022-07-29T07:49:35,42.805,6.029,CST-1368DR,4638,4991,11461,01.237,551
2022-07-29T07:52:36,42.805,6.029,CST-1368DR,4638,4994,11469,01.235,551
2022-07-29T07:55:38,42.805,6.029,CST-1368DR,4638,4992,11464,01.236,551
2022-07-29T07:58:40,42.805,6.029,CST-1368DR,4638,5001,11484,01.229,551
2022-07-29T08:01:41,42.805,6.029,CST-1368DR,4638,4999,11480,01.231,551
2022-07-29T08:04:43,42.805,6.029,CST-1368DR,4638,5000,11481,01.230,551
2022-07-29T08:07:44,42.805,6.029,CST-1368DR,4638,4998,11478,01.231,551
2022-07-29T08:10:46,42.805,6.029,CST-1368DR,4638,4994,11468,01.235,551
2022-07-29T08:13:47,42.805,6.029,CST-1368DR,4638,4998,11477,01.232,551
2022-07-29T08:16:49,42.805,6.029,CST-1368DR,4638,4992,11465,01.236,551
2022-07-29T08:19:51,42.805,6.029,CST-1368DR,4638,4994,11467,01.235,551
2022-07-29T08:22:52,42.805,6.029,CST-1368DR,4638,4991,11461,01.237,551
2022-07-29T08:25:54,42.805,6.029,CST-1368DR,4638,4996,11473,01.233,551
2022-07-29T08:28:55,42.805,6.029,CST-1368DR,4638,4987,11453,01.240,551
2022-07-29T08:31:57,42.805,6.029,CST-1368DR,4638,4988,11455,01.239,551
2022-07-29T08:34:59,42.805,6.029,CST-1368DR,4638,4988,11455,01.239,551
2022-07-29T08:38:00,42.805,6.029,CST-1368DR,4638,4986,11451,01.241,551
2022-07-29T08:41:02,42.805,6.029,CST-1368DR,4638,4985,11448,01.242,551
2022-07-29T08:44:03,42.805,6.029,CST-1368DR,4638,4986,11451,01.241,551
2022-07-29T08:47:05,42.805,6.029,CST-1368DR,4638,4991,11461,01.237,551
2022-07-29T08:50:06,42.805,6.029,CST-1368DR,4638,4987,11451,01.241,551
2022-07-29T08:53:08,42.805,6.029,CST-1368DR,4638,4988,11454,01.240,551
2022-07-29T08:56:10,42.805,6.029,CST-1368DR,4638,4989,11458,01.238,551
2022-07-29T08:59:11,42.805,6.029,CST-1368DR,4638,4987,11453,01.240,551
2022-07-29T09:02:13,42.805,6.029,CST-1368DR,4638,4986,11450,01.241,551
2022-07-29T09:05:14,42.805,6.029,CST-1368DR,4638,4988,11455,01.239,551
2022-07-29T09:08:16,42.805,6.029,CST-1368DR,4638,4989,11458,01.238,551
2022-07-29T09:11:18,42.805,6.029,CST-1368DR,4638,4996,11474,01.233,551
2022-07-29T09:14:19,42.805,6.029,CST-1368DR,4638,5001,11485,01.229,551
2022-07-29T09:17:21,42.805,6.029,CST-1368DR,4638,4992,11463,01.237,551
2022-07-29T09:20:22,42.805,6.029,CST-1368DR,4638,4986,11451,01.241,551
2022-07-29T09:23:24,42.805,6.029,CST-1368DR,4638,4990,11459,01.238,551
2022-07-29T09:26:25,42.805,6.029,CST-1368DR,4638,4985,11449,01.242,551
2022-07-29T09:29:27,42.805,6.029,CST-1368DR,4638,4988,11455,01.239,551
2022-07-29T09:32:29,42.805,6.029,CST-1368DR,4638,4985,11449,01.242,551
2022-07-29T09:35:30,42.805,6.029,CST-1368DR,4638,4985,11449,01.242,551
2022-07-29T09:38:32,42.805,6.029,CST-1368DR,4638,4991,11461,01.237,551
2022-07-29T09:41:33,42.805,6.029,CST-1368DR,4638,4989,11456,01.239,551
2022-07-29T09:44:35,42.805,6.029,CST-1368DR,4638,4986,11451,01.241,551
2022-07-29T09:47:36,42.805,6.029,CST-1368DR,4638,4988,11454,01.240,551
2022-07-29T09:50:38,42.805,6.029,CST-1368DR,4638,4988,11454,01.240,551
2022-07-29T09:53:40,42.805,6.029,CST-1368DR,4637,4988,11458,01.238,551
2022-07-29T09:56:41,42.805,6.029,CST-1368DR,4638,4985,11447,01.242,551
2022-07-29T09:59:43,42.805,6.029,CST-1368DR,4638,4983,11443,01.244,551
2022-07-29T10:02:44,42.805,6.029,CST-1368DR,4638,4987,11451,01.241,550
2022-07-29T10:05:46,42.805,6.029,CST-1368DR,4638,4983,11444,01.243,551
2022-07-29T10:08:48,42.805,6.029,CST-1368DR,4638,4985,11449,01.242,551
2022-07-29T10:11:49,42.805,6.029,CST-1368DR,4638,4987,11453,01.240,551
2022-07-29T10:14:51,42.805,6.029,CST-1368DR,4638,4989,11456,01.239,551
2022-07-29T10:17:52,42.805,6.029,CST-1368DR,4638,4990,11460,01.238,551
2022-07-29T10:20:54,42.805,6.029,CST-1368DR,4638,4987,11453,01.240,551
2022-07-29T10:23:55,42.805,6.029,CST-1368DR,4637,4987,11455,01.239,551
2022-07-29T10:26:57,42.805,6.029,CST-1368DR,4638,4986,11451,01.241,551
2022-07-29T10:29:59,42.805,6.029,CST-1368DR,4638,4990,11460,01.238,551
2022-07-29T10:33:00,42.805,6.029,CST-1368DR,4638,4984,11445,01.243,551
2022-07-29T10:36:02,42.805,6.029,CST-1368DR,4638,4985,11449,01.242,551
2022-07-29T10:39:03,42.805,6.029,CST-1368DR,4638,4987,11453,01.240,551
2022-07-29T10:42:05,42.805,6.029,CST-1368DR,4638,4991,11462,01.237,551
2022-07-29T10:45:06,42.805,6.029,CST-1368DR,4638,4992,11463,01.237,551
2022-07-29T10:48:08,42.805,6.029,CST-1368DR,4638,4990,11459,01.238,551
2022-07-29T10:51:10,42.805,6.029,CST-1368DR,4638,4991,11462,01.237,551
2022-07-29T10:54:11,42.805,6.029,CST-1368DR,4638,4989,11457,01.239,551
2022-07-29T10:57:13,42.805,6.029,CST-1368DR,4637,4993,11468,01.235,551
2022-07-29T11:00:14,42.805,6.029,CST-1368DR,4638,5000,11481,01.230,551
2022-07-29T11:03:16,42.805,6.029,CST-1368DR,4638,4995,11470,01.234,551
2022-07-29T11:06:18,42.805,6.029,CST-1368DR,4638,4990,11459,01.238,551
2022-07-29T11:09:19,42.805,6.029,CST-1368DR,4638,4993,11466,01.236,551
2022-07-29T11:12:21,42.805,6.029,CST-1368DR,4638,4992,11465,01.236,551
2022-07-29T11:15:22,42.805,6.029,CST-1368DR,4638,4987,11451,01.241,551
2022-07-29T11:18:24,42.805,6.029,CST-1368DR,4637,4990,11461,01.237,551
2022-07-29T11:21:25,42.805,6.029,CST-1368DR,4637,4991,11464,01.236,551
2022-07-29T11:24:27,42.805,6.029,CST-1368DR,4637,4991,11463,01.237,551
2022-07-29T11:27:29,42.805,6.029,CST-1368DR,4638,4990,11459,01.238,551
2022-07-29T11:30:30,42.805,6.029,CST-1368DR,4637,4993,11468,01.235,551
2022-07-29T11:33:32,42.805,6.029,CST-1368DR,4638,4987,11451,01.241,551
2022-07-29T11:36:33,42.805,6.029,CST-1368DR,4638,5000,11481,01.230,551
2022-07-29T11:39:35,42.805,6.029,CST-1368DR,4637,4990,11462,01.237,551
2022-07-29T11:42:36,42.805,6.029,CST-1368DR,4638,4992,11465,01.236,551
2022-07-29T11:45:38,42.805,6.029,CST-1368DR,4637,4994,11470,01.234,551
2022-07-29T11:48:40,42.805,6.029,CST-1368DR,4637,4990,11461,01.237,551
2022-07-29T11:51:41,42.805,6.029,CST-1368DR,4638,4997,11475,01.233,551
2022-07-29T11:54:43,42.805,6.029,CST-1368DR,4637,4993,11469,01.235,551
2022-07-29T11:57:44,42.805,6.029,CST-1368DR,4638,4993,11465,01.236,551
2022-07-29T12:00:46,42.805,6.029,CST-1368DR,4637,4988,11457,01.239,551
2022-07-29T12:03:48,42.805,6.029,CST-1368DR,4637,4993,11468,01.235,551
2022-07-29T12:06:49,42.805,6.029,CST-1368DR,4638,4992,11463,01.237,551
2022-07-29T12:09:51,42.805,6.029,CST-1368DR,4637,4993,11468,01.235,551
2022-07-29T12:12:52,42.805,6.029,CST-1368DR,4637,4992,11465,01.236,551
2022-07-29T12:15:54,42.805,6.029,CST-1368DR,4638,4993,11466,01.236,551
2022-07-29T12:18:55,42.805,6.029,CST-1368DR,4638,4993,11465,01.236,551
2022-07-29T12:21:57,42.805,6.029,CST-1368DR,4637,4993,11469,01.235,551
2022-07-29T12:24:59,42.805,6.029,CST-1368DR,4637,4991,11465,01.236,551
2022-07-29T12:28:00,42.805,6.029,CST-1368DR,4637,4990,11461,01.237,551
2022-07-29T12:31:02,42.805,6.029,CST-1368DR,4637,4989,11459,01.238,551
2022-07-29T12:34:03,42.805,6.029,CST-1368DR,4637,4993,11468,01.235,551
2022-07-29T12:37:05,42.805,6.029,CST-1368DR,4637,4994,11471,01.234,551
2022-07-29T12:40:06,42.805,6.029,CST-1368DR,4637,4992,11466,01.236,551
2022-07-29T12:43:08,42.805,6.029,CST-1368DR,4637,4993,11468,01.235,551
2022-07-29T12:46:10,42.805,6.029,CST-1368DR,4637,4990,11462,01.237,551
2022-07-29T12:49:11,42.805,6.029,CST-1368DR,4637,4992,11466,01.236,550
2022-07-29T12:52:13,42.805,6.029,CST-1368DR,4637,4989,11460,01.238,551
2022-07-29T12:55:14,42.805,6.029,CST-1368DR,4638,5007,11497,01.225,551
2022-07-29T12:58:16,42.805,6.029,CST-1368DR,4637,4994,11471,01.234,551
2022-07-29T13:01:18,42.805,6.029,CST-1368DR,4637,4998,11480,01.231,551
2022-07-29T13:04:19,42.805,6.029,CST-1368DR,4637,4993,11468,01.235,551
2022-07-29T13:07:21,42.805,6.029,CST-1368DR,4637,4995,11473,01.233,551
2022-07-29T13:10:22,42.805,6.029,CST-1368DR,4637,4997,11477,01.232,551
2022-07-29T13:13:24,42.805,6.029,CST-1368DR,4637,4992,11467,01.235,551
2022-07-29T13:16:25,42.805,6.029,CST-1368DR,4637,4991,11465,01.236,551
2022-07-29T13:19:27,42.805,6.029,CST-1368DR,4637,4992,11467,01.235,551
2022-07-29T13:22:29,42.805,6.029,CST-1368DR,4637,4995,11472,01.234,551
2022-07-29T13:25:30,42.805,6.029,CST-1368DR,4637,4993,11469,01.235,551
2022-07-29T13:28:32,42.805,6.029,CST-1368DR,4637,4995,11472,01.234,551
2022-07-29T13:31:33,42.805,6.029,CST-1368DR,4637,4990,11462,01.237,551
2022-07-29T13:34:35,42.805,6.029,CST-1368DR,4637,4996,11474,01.233,551
2022-07-29T13:37:36,42.805,6.029,CST-1368DR,4637,4994,11470,01.234,551
2022-07-29T13:40:38,42.805,6.029,CST-1368DR,4637,4996,11474,01.233,551
2022-07-29T13:43:40,42.805,6.029,CST-1368DR,4637,4993,11468,01.235,551
2022-07-29T13:46:41,42.805,6.029,CST-1368DR,4637,4992,11466,01.236,551
2022-07-29T13:49:43,42.805,6.029,CST-1368DR,4637,4992,11466,01.236,551
2022-07-29T13:52:44,42.805,6.029,CST-1368DR,4637,4994,11470,01.234,551
2022-07-29T13:55:46,42.805,6.029,CST-1368DR,4637,4992,11465,01.236,551
2022-07-29T13:58:48,42.805,6.029,CST-1368DR,4637,4990,11461,01.237,551
2022-07-29T14:01:49,42.805,6.029,CST-1368DR,4637,4992,11466,01.236,551
2022-07-29T14:04:51,42.805,6.029,CST-1368DR,4637,4986,11453,01.240,551
2022-07-29T14:07:52,42.805,6.029,CST-1368DR,4637,4990,11462,01.237,551
2022-07-29T14:10:54,42.805,6.029,CST-1368DR,4637,4989,11460,01.238,551
2022-07-29T14:13:55,42.805,6.029,CST-1368DR,4637,4989,11459,01.238,551
2022-07-29T14:16:57,42.805,6.029,CST-1368DR,4637,4989,11460,01.238,551
2022-07-29T14:19:59,42.805,6.029,CST-1368DR,4637,4989,11459,01.238,551
2022-07-29T14:23:00,42.805,6.029,CST-1368DR,4637,4990,11461,01.237,551
2022-07-29T14:26:02,42.805,6.029,CST-1368DR,4637,4989,11459,01.238,551
2022-07-29T14:29:03,42.805,6.029,CST-1368DR,4637,4992,11465,01.236,551
2022-07-29T14:32:05,42.805,6.029,CST-1368DR,4637,4988,11458,01.238,551
2022-07-29T14:35:07,42.805,6.029,CST-1368DR,4637,4986,11453,01.240,551
2022-07-29T14:38:08,42.805,6.029,CST-1368DR,4637,4989,11458,01.238,551
2022-07-29T14:41:10,42.805,6.029,CST-1368DR,4637,4989,11460,01.238,551
2022-07-29T14:44:11,42.805,6.029,CST-1368DR,4637,4993,11468,01.235,551
2022-07-29T14:47:13,42.805,6.029,CST-1368DR,4637,4990,11461,01.237,551
2022-07-29T14:50:14,42.805,6.029,CST-1368DR,4637,4989,11458,01.238,551
2022-07-29T14:53:16,42.805,6.029,CST-1368DR,4637,4987,11454,01.240,551
2022-07-29T14:56:18,42.805,6.029,CST-1368DR,4637,4990,11462,01.237,551
2022-07-29T14:59:19,42.805,6.029,CST-1368DR,4637,4986,11453,01.240,551
2022-07-29T15:02:21,42.805,6.029,CST-1368DR,4637,4982,11443,01.244,551
2022-07-29T15:05:22,42.805,6.029,CST-1368DR,4637,4985,11450,01.241,551
2022-07-29T15:08:24,42.805,6.029,CST-1368DR,4637,4986,11453,01.240,551
2022-07-29T15:11:25,42.805,6.029,CST-1368DR,4637,4980,11438,01.245,551
2022-07-29T15:14:27,42.805,6.029,CST-1368DR,4637,4986,11452,01.241,551
2022-07-29T15:17:29,42.805,6.029,CST-1368DR,4637,4984,11448,01.242,551
2022-07-29T15:20:30,42.805,6.029,CST-1368DR,4637,4983,11445,01.243,551
2022-07-29T15:23:32,42.805,6.029,CST-1368DR,4637,4987,11454,01.240,551
2022-07-29T15:26:33,42.805,6.029,CST-1368DR,4637,4985,11451,01.241,551
2022-07-29T15:29:35,42.805,6.029,CST-1368DR,4637,4984,11448,01.242,551
2022-07-29T15:32:36,42.805,6.029,CST-1368DR,4637,4986,11453,01.240,551
2022-07-29T15:35:38,42.805,6.029,CST-1368DR,4637,4986,11453,01.240,551
2022-07-29T15:38:40,42.805,6.029,CST-1368DR,4637,4985,11450,01.241,551
2022-07-29T15:41:41,42.805,6.029,CST-1368DR,4637,4985,11451,01.241,551
2022-07-29T15:44:43,42.805,6.029,CST-1368DR,4637,4989,11459,01.238,551
2022-07-29T15:47:44,42.805,6.029,CST-1368DR,4637,4988,11457,01.239,551
2022-07-29T15:50:46,42.805,6.029,CST-1368DR,4637,4997,11478,01.231,551
2022-07-29T15:53:48,42.805,6.029,CST-1368DR,4637,4988,11457,01.239,551
2022-07-29T15:56:49,42.805,6.029,CST-1368DR,4637,4990,11462,01.237,551
2022-07-29T15:59:51,42.805,6.029,CST-1368DR,4637,4986,11452,01.241,551
2022-07-29T16:02:52,42.805,6.029,CST-1368DR,4637,4985,11450,01.241,551
2022-07-29T16:05:54,42.805,6.029,CST-1368DR,4637,4988,11458,01.238,551
2022-07-29T16:08:55,42.805,6.029,CST-1368DR,4637,4985,11450,01.241,551
2022-07-29T16:11:57,42.805,6.029,CST-1368DR,4637,4985,11450,01.241,551
2022-07-29T16:14:59,42.805,6.029,CST-1368DR,4637,4985,11450,01.241,551
2022-07-29T16:18:00,42.805,6.029,CST-1368DR,4637,4986,11453,01.240,551
2022-07-29T16:21:02,42.805,6.029,CST-1368DR,4637,4988,11457,01.239,551
2022-07-29T16:24:03,42.805,6.029,CST-1368DR,4637,4990,11461,01.237,551
2022-07-29T16:27:05,42.805,6.029,CST-1368DR,4637,4991,11463,01.237,551
2022-07-29T16:30:06,42.805,6.029,CST-1368DR,4637,4992,11466,01.236,551
2022-07-29T16:33:08,42.805,6.029,CST-1368DR,4637,4991,11465,01.236,551
2022-07-29T16:36:10,42.805,6.029,CST-1368DR,4637,4990,11462,01.237,551